TimeMDT,TemperatureF,Dew PointF,Humidity,Sea Level PressureIn,VisibilityMPH,Wind Direction,Wind SpeedMPH,Gust SpeedMPH,PrecipitationIn,Events,Conditions,WindDirDegrees,DateUTC
12:15 AM,48.2,37.4,66,29.53,10.0,SSW,3.5,-,N/A,,Overcast,210,2013-10-11 06:15:00
12:35 AM,50.0,37.4,62,29.52,10.0,Calm,Calm,-,N/A,,Overcast,0,2013-10-11 06:35:00
12:55 AM,48.2,39.2,71,29.52,10.0,South,5.8,-,N/A,,Overcast,170,2013-10-11 06:55:00
1:15 AM,48.2,39.2,71,29.53,10.0,SSW,4.6,-,N/A,,Overcast,210,2013-10-11 07:15:00
1:35 AM,48.2,39.2,71,29.52,10.0,South,10.4,-,N/A,,Overcast,170,2013-10-11 07:35:00
1:55 AM,48.2,37.4,66,29.51,10.0,SSW,8.1,-,N/A,,Overcast,200,2013-10-11 07:55:00
2:15 AM,48.2,39.2,71,29.50,10.0,South,6.9,-,N/A,,Overcast,190,2013-10-11 08:15:00
2:35 AM,48.2,39.2,71,29.50,10.0,South,6.9,-,N/A,,Overcast,190,2013-10-11 08:35:00
3:15 AM,48.2,37.4,66,29.52,10.0,Calm,Calm,-,N/A,,Overcast,0,2013-10-11 09:15:00
3:35 AM,46.4,39.2,76,29.53,10.0,East,6.9,-,N/A,,Overcast,90,2013-10-11 09:35:00
3:55 AM,46.4,39.2,76,29.54,10.0,East,3.5,-,N/A,,Overcast,100,2013-10-11 09:55:00
4:15 AM,46.4,39.2,76,29.56,10.0,East,3.5,-,N/A,,Overcast,80,2013-10-11 10:15:00
4:35 AM,46.4,39.2,76,29.57,10.0,ENE,3.5,-,N/A,,Overcast,60,2013-10-11 10:35:00
4:55 AM,46.4,39.2,76,29.58,10.0,East,3.5,-,N/A,,Overcast,80,2013-10-11 10:55:00
5:15 AM,46.4,39.2,76,29.59,10.0,Calm,Calm,-,N/A,,Overcast,0,2013-10-11 11:15:00
5:35 AM,46.4,39.2,76,29.60,10.0,Calm,Calm,-,N/A,,Overcast,0,2013-10-11 11:35:00
5:55 AM,46.4,39.2,76,29.61,10.0,SSW,3.5,-,N/A,,Mostly Cloudy,210,2013-10-11 11:55:00
6:15 AM,46.4,39.2,76,29.62,10.0,SSW,4.6,-,N/A,,Mostly Cloudy,210,2013-10-11 12:15:00
6:35 AM,46.4,39.2,76,29.62,10.0,Calm,Calm,-,N/A,,Overcast,0,2013-10-11 12:35:00
6:55 AM,46.4,39.2,76,29.65,10.0,Calm,Calm,-,N/A,,Overcast,0,2013-10-11 12:55:00
7:15 AM,46.4,39.2,76,29.65,10.0,South,3.5,-,N/A,,Overcast,170,2013-10-11 13:15:00
7:35 AM,46.4,39.2,76,29.67,10.0,Calm,Calm,-,N/A,,Overcast,0,2013-10-11 13:35:00
7:55 AM,51.8,37.4,58,29.68,10.0,NW,8.1,-,N/A,,Overcast,310,2013-10-11 13:55:00
8:15 AM,51.8,39.2,62,29.70,10.0,NNW,4.6,-,N/A,,Overcast,330,2013-10-11 14:15:00
8:35 AM,51.8,39.2,62,29.72,10.0,NNW,3.5,-,N/A,,Overcast,330,2013-10-11 14:35:00
8:55 AM,53.6,39.2,58,29.73,10.0,NW,6.9,-,N/A,,Overcast,310,2013-10-11 14:55:00
9:15 AM,55.4,39.2,54,29.75,10.0,NW,11.5,-,N/A,,Mostly Cloudy,310,2013-10-11 15:15:00
9:35 AM,55.4,37.4,51,29.76,10.0,NW,21.9,27.6,N/A,,Scattered Clouds,310,2013-10-11 15:35:00
9:55 AM,57.2,37.4,48,29.77,10.0,NW,17.3,26.5,N/A,,Partly Cloudy,320,2013-10-11 15:55:00
10:15 AM,57.2,37.4,48,29.78,10.0,NW,17.3,28.8,N/A,,Clear,320,2013-10-11 16:15:00
10:35 AM,59.0,35.6,42,29.80,10.0,NW,23.0,33.4,N/A,,Clear,310,2013-10-11 16:35:00
10:55 AM,59.0,37.4,45,29.81,10.0,NW,21.9,29.9,N/A,,Partly Cloudy,310,2013-10-11 16:55:00
11:15 AM,59.0,37.4,45,29.82,10.0,NW,20.7,29.9,N/A,,Scattered Clouds,310,2013-10-11 17:15:00
11:35 AM,59.0,35.6,42,29.83,10.0,NNW,21.9,27.6,N/A,,Partly Cloudy,330,2013-10-11 17:35:00
11:55 AM,57.2,35.6,44,29.83,10.0,NW,19.6,24.2,N/A,,Clear,320,2013-10-11 17:55:00
12:15 PM,57.2,35.6,44,29.83,10.0,NNW,19.6,31.1,N/A,,Clear,330,2013-10-11 18:15:00
12:35 PM,60.8,35.6,39,29.82,10.0,NNW,26.5,32.2,N/A,,Clear,330,2013-10-11 18:35:00
12:55 PM,60.8,35.6,39,29.81,10.0,NNW,24.2,33.4,N/A,,Clear,340,2013-10-11 18:55:00
1:15 PM,62.6,35.6,37,29.82,10.0,NNW,21.9,33.4,N/A,,Partly Cloudy,340,2013-10-11 19:15:00
1:35 PM,62.6,35.6,37,29.82,10.0,NNW,24.2,29.9,N/A,,Partly Cloudy,330,2013-10-11 19:35:00
1:55 PM,60.8,33.8,36,29.82,10.0,NNW,24.2,-,N/A,,Clear,330,2013-10-11 19:55:00
2:15 PM,60.8,35.6,39,29.83,10.0,NW,26.5,32.2,N/A,,Clear,320,2013-10-11 20:15:00
2:35 PM,60.8,33.8,36,29.84,10.0,NW,25.3,31.1,N/A,,Clear,320,2013-10-11 20:35:00
2:55 PM,60.8,33.8,36,29.85,10.0,NW,21.9,27.6,N/A,,Partly Cloudy,320,2013-10-11 20:55:00
3:15 PM,60.8,35.6,39,29.86,10.0,NNW,21.9,26.5,N/A,,Partly Cloudy,330,2013-10-11 21:15:00
3:35 PM,57.2,33.8,41,29.87,10.0,NNW,21.9,26.5,N/A,,Partly Cloudy,330,2013-10-11 21:35:00
3:55 PM,57.2,33.8,41,29.88,10.0,NNW,20.7,-,N/A,,Mostly Cloudy,340,2013-10-11 21:55:00
4:15 PM,57.2,32.0,38,29.89,10.0,NNW,18.4,26.5,N/A,,Mostly Cloudy,330,2013-10-11 22:15:00
4:35 PM,57.2,33.8,41,29.89,10.0,NNW,17.3,21.9,N/A,,Partly Cloudy,340,2013-10-11 22:35:00
4:55 PM,55.4,33.8,44,29.90,10.0,NNW,12.7,-,N/A,,Clear,340,2013-10-11 22:55:00
5:15 PM,55.4,33.8,44,29.91,10.0,North,6.9,-,N/A,,Clear,350,2013-10-11 23:15:00
5:35 PM,53.6,35.6,51,29.91,10.0,North,5.8,-,N/A,,Clear,350,2013-10-11 23:35:00
5:55 PM,55.4,35.6,47,29.93,10.0,NNW,4.6,-,N/A,,Clear,340,2013-10-11 23:55:00
6:15 PM,55.4,33.8,44,29.94,10.0,WNW,4.6,-,N/A,,Clear,300,2013-10-12 00:15:00
6:35 PM,53.6,33.8,47,29.94,10.0,NNW,5.8,-,N/A,,Clear,340,2013-10-12 00:35:00
6:55 PM,51.8,32.0,47,29.96,10.0,NNW,3.5,-,N/A,,Partly Cloudy,330,2013-10-12 00:55:00
7:15 PM,50.0,33.8,54,29.97,10.0,East,5.8,-,N/A,,Mostly Cloudy,100,2013-10-12 01:15:00
7:35 PM,48.2,35.6,62,29.99,10.0,ESE,10.4,-,N/A,,Overcast,120,2013-10-12 01:35:00
7:55 PM,48.2,35.6,62,30.00,10.0,ESE,11.5,-,N/A,,Overcast,120,2013-10-12 01:55:00
8:15 PM,48.2,35.6,62,30.01,10.0,ESE,10.4,-,N/A,,Partly Cloudy,110,2013-10-12 02:15:00
8:35 PM,46.4,35.6,66,30.02,10.0,East,9.2,-,N/A,,Partly Cloudy,100,2013-10-12 02:35:00
8:55 PM,46.4,35.6,66,30.03,10.0,ESE,8.1,-,N/A,,Mostly Cloudy,120,2013-10-12 02:55:00
9:15 PM,46.4,35.6,66,30.04,10.0,East,6.9,-,N/A,,Mostly Cloudy,100,2013-10-12 03:15:00
9:35 PM,44.6,35.6,71,30.05,10.0,East,6.9,-,N/A,,Scattered Clouds,100,2013-10-12 03:35:00
9:55 PM,44.6,35.6,71,30.05,10.0,East,6.9,-,N/A,,Scattered Clouds,100,2013-10-12 03:55:00
10:15 PM,44.6,35.6,71,30.06,10.0,ESE,4.6,-,N/A,,Scattered Clouds,120,2013-10-12 04:15:00
10:35 PM,44.6,35.6,71,30.07,10.0,East,4.6,-,N/A,,Mostly Cloudy,90,2013-10-12 04:35:00
10:55 PM,42.8,35.6,76,30.07,10.0,ESE,6.9,-,N/A,,Mostly Cloudy,110,2013-10-12 04:55:00
11:15 PM,42.8,35.6,76,30.07,10.0,ESE,5.8,-,N/A,,Scattered Clouds,110,2013-10-12 05:15:00
11:35 PM,42.8,33.8,70,30.08,10.0,East,3.5,-,N/A,,Mostly Cloudy,80,2013-10-12 05:35:00
11:55 PM,42.8,35.6,76,30.08,10.0,East,6.9,-,N/A,,Partly Cloudy,90,2013-10-12 05:55:00